TimeMST,TemperatureF,Dew PointF,Humidity,Sea Level PressureIn,VisibilityMPH,Wind Direction,Wind SpeedMPH,Gust SpeedMPH,PrecipitationIn,Events,Conditions,WindDirDegrees,DateUTC
12:15 AM,24.8,14.0,64,30.26,10.0,NW,9.2,-,N/A,,Clear,320,2012-11-30 07:15:00
12:35 AM,26.6,15.8,64,30.25,10.0,North,6.9,-,N/A,,Clear,350,2012-11-30 07:35:00
12:55 AM,24.8,15.8,69,30.24,10.0,NNW,5.8,-,N/A,,Clear,340,2012-11-30 07:55:00
1:15 AM,24.8,15.8,69,30.25,10.0,North,5.8,-,N/A,,Clear,350,2012-11-30 08:15:00
1:35 AM,24.8,15.8,69,30.25,10.0,Calm,Calm,-,N/A,,Clear,0,2012-11-30 08:35:00
1:54 AM,23.0,14.0,68,30.25,10.0,North,3.5,-,N/A,,Clear,360,2012-11-30 08:54:00
2:15 AM,23.0,15.8,74,30.26,10.0,Calm,Calm,-,N/A,,Clear,0,2012-11-30 09:15:00
2:35 AM,23.0,15.8,74,30.26,10.0,NW,5.8,-,N/A,,Clear,320,2012-11-30 09:35:00
2:55 AM,23.0,15.8,74,30.26,10.0,NNW,6.9,-,N/A,,Clear,340,2012-11-30 09:55:00
3:14 AM,23.0,15.8,74,30.26,10.0,North,6.9,-,N/A,,Clear,350,2012-11-30 10:14:00
3:35 AM,23.0,15.8,74,30.25,10.0,NNW,8.1,-,N/A,,Clear,340,2012-11-30 10:35:00
3:54 AM,24.8,15.8,69,30.24,10.0,NW,6.9,-,N/A,,Clear,310,2012-11-30 10:54:00
4:15 AM,24.8,17.6,74,30.24,10.0,NNW,8.1,-,N/A,,Clear,330,2012-11-30 11:15:00
4:34 AM,24.8,15.8,69,30.23,10.0,NNW,6.9,-,N/A,,Clear,330,2012-11-30 11:34:00
5:15 AM,23.0,17.6,80,30.24,10.0,NNW,5.8,-,N/A,,Clear,340,2012-11-30 12:15:00
5:34 AM,23.0,17.6,80,30.24,10.0,NNW,9.2,-,N/A,,Clear,330,2012-11-30 12:34:00
5:54 AM,24.8,17.6,74,30.25,10.0,NNW,5.8,-,N/A,,Clear,330,2012-11-30 12:54:00
6:15 AM,24.8,15.8,69,30.25,10.0,NNW,8.1,-,N/A,,Clear,340,2012-11-30 13:15:00
6:35 AM,24.8,17.6,74,30.24,10.0,NNW,8.1,-,N/A,,Clear,340,2012-11-30 13:35:00
6:55 AM,23.0,15.8,74,30.25,10.0,NNW,8.1,-,N/A,,Clear,340,2012-11-30 13:55:00
7:15 AM,24.8,17.6,74,30.25,10.0,NW,8.1,-,N/A,,Clear,320,2012-11-30 14:15:00
7:35 AM,24.8,17.6,74,30.25,10.0,NNW,10.4,-,N/A,,Clear,340,2012-11-30 14:35:00
7:55 AM,28.4,19.4,69,30.25,10.0,North,8.1,-,N/A,,Clear,360,2012-11-30 14:55:00
8:15 AM,30.2,19.4,64,30.25,10.0,NW,11.5,-,N/A,,Clear,320,2012-11-30 15:15:00
8:35 AM,33.8,21.2,60,30.26,10.0,NW,9.2,-,N/A,,Clear,320,2012-11-30 15:35:00
8:55 AM,33.8,19.4,56,30.26,10.0,NW,11.5,-,N/A,,Clear,320,2012-11-30 15:55:00
9:14 AM,35.6,21.2,56,30.26,10.0,NW,9.2,-,N/A,,Clear,310,2012-11-30 16:14:00
9:35 AM,37.4,21.2,52,30.26,10.0,NW,8.1,-,N/A,,Clear,310,2012-11-30 16:35:00
9:55 AM,37.4,21.2,52,30.25,10.0,NW,6.9,-,N/A,,Clear,310,2012-11-30 16:55:00
10:15 AM,41.0,21.2,45,30.24,10.0,WNW,3.5,-,N/A,,Clear,300,2012-11-30 17:15:00
10:35 AM,41.0,21.2,45,30.24,10.0,Calm,Calm,-,N/A,,Clear,0,2012-11-30 17:35:00
10:55 AM,42.8,23.0,46,30.23,10.0,Calm,Calm,-,N/A,,Clear,0,2012-11-30 17:55:00
11:14 AM,42.8,21.2,42,30.22,10.0,Calm,Calm,-,N/A,,Clear,0,2012-11-30 18:14:00
11:35 AM,44.6,21.2,39,30.21,10.0,SE,4.6,-,N/A,,Clear,130,2012-11-30 18:35:00
11:55 AM,44.6,21.2,39,30.19,10.0,SSE,5.8,-,N/A,,Clear,150,2012-11-30 18:55:00
12:14 PM,46.4,19.4,34,30.17,10.0,South,5.8,-,N/A,,Clear,170,2012-11-30 19:14:00
12:35 PM,46.4,19.4,34,30.16,10.0,South,3.5,-,N/A,,Clear,180,2012-11-30 19:35:00
12:55 PM,46.4,19.4,34,30.16,10.0,South,5.8,-,N/A,,Clear,170,2012-11-30 19:55:00
1:15 PM,48.2,19.4,32,30.16,10.0,South,5.8,-,N/A,,Clear,180,2012-11-30 20:15:00
1:34 PM,48.2,19.4,32,30.15,10.0,SSE,8.1,-,N/A,,Clear,160,2012-11-30 20:34:00
1:55 PM,48.2,19.4,32,30.14,10.0,SSE,6.9,-,N/A,,Clear,150,2012-11-30 20:55:00
2:15 PM,50.0,21.2,32,30.13,10.0,South,6.9,-,N/A,,Clear,170,2012-11-30 21:15:00
2:35 PM,50.0,19.4,30,30.13,10.0,South,6.9,-,N/A,,Clear,190,2012-11-30 21:35:00
2:55 PM,48.2,19.4,32,30.12,10.0,South,6.9,-,N/A,,Clear,180,2012-11-30 21:55:00
3:14 PM,46.4,19.4,34,30.13,10.0,South,4.6,-,N/A,,Clear,170,2012-11-30 22:14:00
3:35 PM,46.4,19.4,34,30.13,10.0,SSE,4.6,-,N/A,,Clear,160,2012-11-30 22:35:00
3:55 PM,46.4,19.4,34,30.13,10.0,Calm,Calm,-,N/A,,Clear,0,2012-11-30 22:55:00
4:15 PM,44.6,19.4,37,30.14,10.0,Calm,Calm,-,N/A,,Clear,0,2012-11-30 23:15:00
4:34 PM,42.8,17.6,36,30.13,10.0,NNE,3.5,-,N/A,,Clear,20,2012-11-30 23:34:00
4:55 PM,37.4,17.6,45,30.13,10.0,NNE,9.2,-,N/A,,Clear,20,2012-11-30 23:55:00
5:15 PM,37.4,17.6,45,30.13,10.0,NNE,8.1,-,N/A,,Clear,20,2012-12-01 00:15:00
5:34 PM,37.4,17.6,45,30.12,10.0,North,8.1,-,N/A,,Clear,350,2012-12-01 00:34:00
5:55 PM,35.6,17.6,48,30.13,10.0,NNW,4.6,-,N/A,,Clear,340,2012-12-01 00:55:00
6:15 PM,33.8,17.6,52,30.13,10.0,NNW,3.5,-,N/A,,Clear,330,2012-12-01 01:15:00
6:35 PM,33.8,17.6,52,30.13,10.0,NNW,8.1,-,N/A,,Clear,340,2012-12-01 01:35:00
7:14 PM,33.8,19.4,56,30.12,10.0,NNW,6.9,-,N/A,,Clear,340,2012-12-01 02:14:00
7:35 PM,33.8,19.4,56,30.13,10.0,NNW,5.8,-,N/A,,Clear,330,2012-12-01 02:35:00
8:14 PM,33.8,19.4,56,30.14,10.0,NNW,8.1,-,N/A,,Clear,340,2012-12-01 03:14:00
8:35 PM,30.2,17.6,60,30.14,10.0,NW,6.9,-,N/A,,Clear,320,2012-12-01 03:35:00
8:55 PM,28.4,17.6,64,30.13,10.0,NNW,5.8,-,N/A,,Clear,330,2012-12-01 03:55:00
9:15 PM,28.4,15.8,59,30.14,10.0,NNW,8.1,-,N/A,,Clear,330,2012-12-01 04:15:00
9:34 PM,28.4,15.8,59,30.14,10.0,NNW,4.6,-,N/A,,Clear,330,2012-12-01 04:34:00
9:55 PM,24.8,15.8,69,30.13,10.0,NNE,5.8,-,N/A,,Clear,20,2012-12-01 04:55:00
10:15 PM,28.4,15.8,59,30.13,10.0,NNW,5.8,-,N/A,,Clear,330,2012-12-01 05:15:00
10:34 PM,28.4,15.8,59,30.14,10.0,NW,9.2,-,N/A,,Clear,320,2012-12-01 05:34:00
10:55 PM,26.6,15.8,64,30.14,10.0,NNW,6.9,-,N/A,,Clear,340,2012-12-01 05:55:00
11:15 PM,28.4,15.8,59,30.14,10.0,NNW,9.2,-,N/A,,Clear,330,2012-12-01 06:15:00
11:35 PM,26.6,15.8,64,30.14,10.0,ESE,6.9,-,N/A,,Clear,110,2012-12-01 06:35:00
11:55 PM,24.8,14.0,64,30.14,10.0,North,4.6,-,N/A,,Clear,10,2012-12-01 06:55:00